Regional Weather Roundup
Issued by NWS Raleigh/Durham, NC

Home | Current Version | Previous Version | Text Only | Print | Product List | Glossary On
Versions: 1 2 3 4 5 6 7 8 9 10 11 12 13 14 15 16 17 18 19 20 21 22 23 24 25 26 27 28 29 30 31 32 33 34 35 36 37 38 39 40 41 42 43 44 45 46 47 48 49 50
000
ASUS42 KRAH 301710
RWRRAH
NORTH CAROLINA WEATHER ROUNDUP
NATIONAL WEATHER SERVICE RALEIGH NC
100 PM EDT TUE JUN 30 2015

NOTE: "FAIR" INDICATES FEW OR NO CLOUDS BELOW 12,000 FEET WITH NO
SIGNIFICANT WEATHER AND/OR OBSTRUCTIONS TO VISIBILITY.

NCZ001-053-055-056-065-067-301800-
WESTERN NORTH CAROLINA

CITY           SKY/WX    TMP DP  RH WIND       PRES   REMARKS
ASHEVILLE      MOSUNNY   79  61  53 N3        30.04R
JEFFERSON      PTSUNNY   75  56  51 W9G23     30.06S
MORGANTON      PTSUNNY   85  55  36 SW7       30.02S
HICKORY        PTSUNNY   88  55  32 NW5       29.96S
RUTHERFORDTON  MOSUNNY   87  61  42 SW12G20   29.98S
MOUNT AIRY     SUNNY     82  64  55 CALM      29.99S
BOONE          PTSUNNY   74  56  53 NW13G22   30.06S
$$

NCZ021-022-025-041-071-084-088-301800-
CENTRAL NORTH CAROLINA

CITY           SKY/WX    TMP DP  RH WIND       PRES   REMARKS
CHARLOTTE      MOSUNNY   91  61  36 S10       29.96S
GREENSBORO     PTSUNNY   87  60  40 VRB6G16   29.94F
WINSTON-SALEM  SUNNY     86  61  42 VRB7      29.96F
RALEIGH-DURHAM MOSUNNY   89  69  51 SW9       29.95S
FORT BRAGG     MOSUNNY   89  65  44 S9        29.94F
FAYETTEVILLE   SUNNY     90  66  45 SW12      29.95F
BURLINGTON     SUNNY     87  66  49 S8        29.94F
LAURINBURG     MOSUNNY   89  66  46 SW12      29.97F
$$

NCZ011-015-027-028-043-044-047-080-103-301800-
NORTHEASTERN NORTH CAROLINA

CITY           SKY/WX    TMP DP  RH WIND       PRES   REMARKS
ROCKY MT-WILSO SUNNY     91  66  43 S9G16     29.94F
GREENVILLE     SUNNY     90  68  48 SW10G16   29.97F
WASHINGTON     SUNNY     88  67  48 SW9       29.96F
ELIZABETH CITY SUNNY     87  66  49 S14       29.95F
MANTEO         SUNNY     85  72  63 S14       29.96F
CAPE HATTERAS  SUNNY     83  73  72 SW9       29.99F
$$

NCZ078-087-090-091-093-098-101-301800-
SOUTHEASTERN NORTH CAROLINA

CITY           SKY/WX    TMP DP  RH WIND       PRES   REMARKS
LUMBERTON      SUNNY     90  66  45 SW14      29.97F
GOLDSBORO      SUNNY     90  67  47 S13       29.93F
KINSTON        SUNNY     90  66  45 S10       29.97F
KENANSVILLE    SUNNY     88  66  47 S3        29.98F
NEW BERN       SUNNY     89  65  44 W10       29.98F
CHERRY POINT   MOSUNNY   90  64  42 SW10      29.98F
BEAUFORT       SUNNY     84  73  69 S10       29.98F
JACKSONVILLE   SUNNY     89  64  43 S6        29.97F
WILMINGTON     SUNNY     89  66  46 SW10      29.99F
$$




USA.gov is the U.S. government's official web portal to all federal, state and local government web resources and services.